Regional Weather Roundup
Issued by NWS

Home | Current Version | Previous Version | Graphics & Text | Print | Product List | Glossary On
Versions: 1 2 3 4 5 6 7 8 9 10 11 12 13 14 15 16 17 18 19 20 21 22 23 24 25 26 27 28 29 30 31 32 33 34 35 36 37 38 39 40 41 42 43 44 45 46 47 48 49 50
000
ASUS45 KSLC 221610
RWRUT

UTAH REGIONAL WEATHER ROUNDUP
NATIONAL WEATHER SERVICE SALT LAKE CITY UT
1000 AM MDT THU JUN 22 2017

UTZ001>011-023>025-221700-

NORTHERN UTAH

CITY           SKY/WX    TMP DP  RH WIND       PRES   REMARKS
BRIGHAM CITY   SUNNY     70  37  29 N6        30.06R
DUGWAY         MOSUNNY   78  24  13 W7        30.05R
HILL AFB       SUNNY     71  37  28 N9        30.08R
LOGAN          SUNNY     71  45  39 CALM      30.07R
OGDEN          SUNNY     73  39  29 N8        30.06R
SALT LAKE CITY MOSUNNY   77  38  24 N12       30.05R
TOOELE VALLEY  SUNNY     75  41  29 N10       30.07S
WENDOVER         N/A     76  31  19 NE14      30.08R
HEBER CITY     SUNNY     70  45  40 CALM      30.08S
WEST JORDAN    SUNNY     74  46  36 N12       30.08S

$$

UTZ011>015-024>027-221700-

CENTRAL/NORTHEAST UTAH

CITY           SKY/WX    TMP DP  RH WIND       PRES   REMARKS
PROVO AIRPORT  MOSUNNY   75  43  31 W6        30.05S
MOAB/CANYONLAN SUNNY     89  33  13 VRB3      29.88F
DELTA          SUNNY     77  32  19 NW6       30.06S
PRICE          MOSUNNY   85  41  21 VRB5      30.02S
RICHFIELD      SUNNY     79  43  27 CALM      30.08S
ROOSEVELT      SUNNY     82  37  20 E3        29.98F
VERNAL         SUNNY     81  45  28 SE5       29.96F

$$

UTZ013>016-019>022-027-221700-

SOUTHERN UTAH

CITY           SKY/WX    TMP DP  RH WIND       PRES   REMARKS
BRYCE CANYON   SUNNY     79  28  15 W15       30.22S
CEDAR CITY     SUNNY     79  30  16 VRB5      30.09R
MILFORD        SUNNY     82  29  14 N16       30.06S
HANKSVILLE     SUNNY     86  27  11 SE3       29.92F
KANAB          SUNNY     86  30  13 S5        30.04F
BLANDING       MOSUNNY   81  33  17 CALM      30.12S

$$

REGIONAL REPORTS     COLORADO/ARIZONA

CITY           SKY/WX    TMP DP  RH WIND       PRES   REMARKS
CRAIG, CO      SUNNY     75  46  35 CALM      30.05S
GRAND JUNCTION SUNNY     80  44  27 S9        29.94S
RIFLE, CO      SUNNY     76  40  27 NE7       30.01F
MONTROSE, CO   CLOUDY    78  41  26 N9        30.02S
CORTEZ, CO     SUNNY     82  40  22 SE9       30.04F
COLORADO CITY    N/A     91  32  12 CALM      30.02F
PAGE, AZ       SUNNY     91  29  11 CALM      29.93S
GRAND CANYON   SUNNY     84  25  11 W9        30.18R
KINGMAN, AZ    SUNNY     97  34  11 SW15      29.91R HX  91
FLAGSTAFF, AZ  SUNNY     84  27  12 W12G20    30.20F

$$

REGIONAL REPORTS    NEVADA/IDAHO/WYOMING

CITY           SKY/WX    TMP DP  RH WIND       PRES   REMARKS
LAS VEGAS, NV  SUNNY     99  19   5 N3        29.78R HX  92
ELY, NY        SUNNY     72  38  29 N15       30.18R
ELKO, NV       SUNNY     69  36  29 SW5       30.17S
POCATELLO, ID  SUNNY     65  40  39 W9        30.13S
BURLEY, ID     SUNNY     65  35  33 W14G23    30.12S
FORT BRIDGER,    N/A     72  31  22 W13       30.17F
EVANSTON, WY   SUNNY     69  35  28 W9        30.17S
ROCK SPRINGS,  SUNNY     70  29  21 NW6       30.11S
KEMMERER, WY     N/A     64  32  29 W13G21    30.17R

$$



USA.gov is the U.S. government's official web portal to all federal, state and local government web resources and services.